Tracking 22287 objects as of 27-Jan-2021
HD Live streaming from Space Station
objects crossing your sky now

STARLINK-1417

Track STARLINK-1417 now!
10-day predictions
STARLINK-1417 is classified as:


NORAD ID: 45693
Int'l Code: 2020-035AN
Perigee: 553.9 km
Apogee: 554.9 km
Inclination: 53.0 °
Period: 95.6 minutes
Semi major axis: 6925 km
RCS: Unknown
Launch date: June 4, 2020
Source: United States (US)
Launch site: AIR FORCE EASTERN TEST RANGE (AFETR)
aabbcc
Your satellite tracking list
Your tracking list is empty




NASA's NSSDC Master Catalog

Two Line Element Set (TLE):
1 45693U 20035AN  21027.61545422  .00004097  00000-0  29387-3 0  9990
2 45693  53.0243 158.2097 0000674 174.0201 186.0795 15.06385534 37455
Source of the keplerian elements: AFSPC